Time,TemperatureF,DewpointF,PressureIn,WindDirection,WindDirectionDegrees,WindSpeedMPH,WindSpeedGustMPH,Humidity,HourlyPrecipIn,Conditions,Clouds,dailyrainin,SoftwareType,DateUTC
2013-10-24 00:15:00,33.0,31.0,30.13,WNW,289,0.0,-999.0,91,-99.99,,,-99.99,,2013-10-24 04:15:00,
2013-10-24 00:24:00,34.0,32.0,30.13,WNW,289,0.0,-999.0,91,-99.99,,,-99.99,,2013-10-24 04:24:00,
2013-10-24 00:44:00,34.0,32.0,30.12,WNW,289,0.0,-999.0,92,-99.99,,,-99.99,,2013-10-24 04:44:00,
2013-10-24 00:54:00,34.0,32.0,30.12,WNW,289,0.0,-999.0,92,-99.99,,,-99.99,,2013-10-24 04:54:00,
2013-10-24 01:13:00,36.0,34.0,30.14,WNW,289,0.0,-999.0,91,-99.99,,,-99.99,,2013-10-24 05:13:00,
2013-10-24 01:22:00,36.0,34.0,30.13,WNW,289,0.0,-999.0,91,-99.99,,,-99.99,,2013-10-24 05:22:00,
2013-10-24 01:43:00,37.0,35.0,30.14,WNW,289,0.0,-999.0,91,-99.99,,,-99.99,,2013-10-24 05:43:00,
2013-10-24 01:53:00,37.0,35.0,30.14,WNW,289,0.0,-999.0,91,-99.99,,,-99.99,,2013-10-24 05:53:00,
2013-10-24 02:12:00,37.0,34.0,30.14,WNW,289,0.0,-999.0,88,-99.99,,,-99.99,,2013-10-24 06:12:00,
2013-10-24 02:22:00,37.0,34.0,30.14,WNW,289,0.0,-999.0,88,-99.99,,,-99.99,,2013-10-24 06:22:00,
2013-10-24 02:42:00,38.0,34.0,30.14,WNW,289,1.0,-999.0,87,-99.99,,,-99.99,,2013-10-24 06:42:00,
2013-10-24 02:52:00,38.0,34.0,30.14,WNW,289,1.0,-999.0,87,-99.99,,,-99.99,,2013-10-24 06:52:00,
2013-10-24 03:12:00,39.0,35.0,30.15,WNW,289,0.0,-999.0,84,-99.99,,,-99.99,,2013-10-24 07:12:00,
2013-10-24 03:22:00,39.0,35.0,30.15,WNW,289,1.0,-999.0,84,-99.99,,,-99.99,,2013-10-24 07:22:00,
2013-10-24 03:42:00,40.0,35.0,30.15,WNW,289,1.0,-999.0,83,-99.99,,,-99.99,,2013-10-24 07:42:00,
2013-10-24 03:52:00,40.0,35.0,30.15,WNW,289,1.0,-999.0,83,-99.99,,,-99.99,,2013-10-24 07:52:00,
2013-10-24 04:11:00,40.0,35.0,30.15,WNW,289,1.0,-999.0,83,-99.99,,,-99.99,,2013-10-24 08:11:00,
2013-10-24 04:22:00,40.0,35.0,30.15,WNW,289,3.0,-999.0,83,-99.99,,,-99.99,,2013-10-24 08:22:00,
2013-10-24 04:42:00,40.0,35.0,30.15,WNW,289,2.0,-999.0,83,-99.99,,,-99.99,,2013-10-24 08:42:00,
2013-10-24 04:53:00,40.0,35.0,30.15,WNW,289,2.0,-999.0,83,-99.99,,,-99.99,,2013-10-24 08:53:00,
2013-10-24 05:12:00,40.0,36.0,30.16,WNW,289,1.0,-999.0,84,-99.99,,,-99.99,,2013-10-24 09:12:00,
2013-10-24 05:22:00,40.0,36.0,30.16,WNW,289,1.0,-999.0,84,-99.99,,,-99.99,,2013-10-24 09:22:00,
2013-10-24 05:53:00,40.0,36.0,30.16,WNW,289,1.0,-999.0,84,-99.99,,,-99.99,,2013-10-24 09:53:00,
2013-10-24 06:12:00,40.0,36.0,30.16,WNW,289,0.0,-999.0,84,-99.99,,,-99.99,,2013-10-24 10:12:00,
2013-10-24 06:23:00,40.0,36.0,30.16,WNW,289,0.0,-999.0,84,-99.99,,,-99.99,,2013-10-24 10:23:00,
2013-10-24 06:43:00,40.0,36.0,30.17,WNW,289,0.0,-999.0,85,-99.99,,,-99.99,,2013-10-24 10:43:00,
2013-10-24 06:53:00,40.0,36.0,30.17,WNW,289,0.0,-999.0,85,-99.99,,,-99.99,,2013-10-24 10:53:00,
2013-10-24 07:12:00,40.0,36.0,30.18,WNW,289,0.0,-999.0,85,-99.99,,,-99.99,,2013-10-24 11:12:00,
2013-10-24 07:22:00,40.0,36.0,30.18,WNW,289,0.0,-999.0,85,-99.99,,,-99.99,,2013-10-24 11:22:00,
2013-10-24 07:42:00,40.0,36.0,30.18,WNW,289,0.0,-999.0,84,-99.99,,,-99.99,,2013-10-24 11:42:00,
2013-10-24 07:53:00,40.0,36.0,30.18,WNW,289,0.0,-999.0,84,-99.99,,,-99.99,,2013-10-24 11:53:00,
2013-10-24 08:12:00,40.0,36.0,30.18,WNW,289,0.0,-999.0,84,-99.99,,,-99.99,,2013-10-24 12:12:00,
2013-10-24 08:22:00,40.0,36.0,30.18,WNW,289,0.0,-999.0,84,-99.99,,,-99.99,,2013-10-24 12:22:00,
2013-10-24 08:42:00,40.0,36.0,30.18,WNW,289,0.0,-999.0,85,-99.99,,,-99.99,,2013-10-24 12:42:00,
2013-10-24 08:52:00,40.0,36.0,30.18,WNW,289,0.0,-999.0,85,-99.99,,,-99.99,,2013-10-24 12:52:00,
2013-10-24 09:12:00,40.0,36.0,30.20,WNW,289,0.0,-999.0,85,-99.99,,,-99.99,,2013-10-24 13:12:00,
2013-10-24 09:22:00,40.0,36.0,30.20,WNW,289,0.0,-999.0,85,-99.99,,,-99.99,,2013-10-24 13:22:00,
2013-10-24 09:32:00,40.0,36.0,30.20,WNW,289,0.0,-999.0,85,-99.99,,,-99.99,,2013-10-24 13:32:00,
2013-10-24 09:42:00,40.0,36.0,30.20,WNW,289,0.0,-999.0,85,-99.99,,,-99.99,,2013-10-24 13:42:00,
2013-10-24 12:13:00,46.0,34.0,30.21,WNW,285,4.0,-999.0,62,-99.99,,,-99.99,,2013-10-24 16:13:00,
2013-10-24 12:23:00,46.0,34.0,30.21,WNW,285,4.0,-999.0,62,-99.99,,,-99.99,,2013-10-24 16:23:00,
2013-10-24 12:42:00,46.0,32.0,30.22,WNW,302,6.0,-999.0,59,-99.99,,,-99.99,,2013-10-24 16:42:00,
2013-10-24 12:53:00,46.0,33.0,30.22,WNW,293,6.0,-999.0,61,-99.99,,,-99.99,,2013-10-24 16:53:00,
2013-10-24 13:03:00,46.0,33.0,30.22,WNW,293,6.0,-999.0,61,-99.99,,,-99.99,,2013-10-24 17:03:00,
2013-10-24 13:12:00,46.0,33.0,30.22,WNW,293,6.0,-999.0,61,-99.99,,,-99.99,,2013-10-24 17:12:00,
2013-10-24 13:22:00,47.0,34.0,30.22,WSW,252,6.0,-999.0,60,-99.99,,,-99.99,,2013-10-24 17:22:00,
2013-10-24 13:43:00,47.0,34.0,30.21,WNW,296,6.0,-999.0,60,-99.99,,,-99.99,,2013-10-24 17:43:00,
2013-10-24 13:52:00,47.0,33.0,30.21,WNW,300,5.0,-999.0,58,-99.99,,,-99.99,,2013-10-24 17:52:00,
2013-10-24 14:02:00,47.0,33.0,30.21,WNW,300,5.0,-999.0,58,-99.99,,,-99.99,,2013-10-24 18:02:00,
2013-10-24 14:12:00,47.0,33.0,30.21,WNW,300,5.0,-999.0,58,-99.99,,,-99.99,,2013-10-24 18:12:00,
2013-10-24 14:23:00,47.0,34.0,30.21,North,-999,4.0,-999.0,61,-99.99,,,-99.99,,2013-10-24 18:23:00,
2013-10-24 14:42:00,47.0,35.0,30.20,WSW,254,3.0,-999.0,62,-99.99,,,-99.99,,2013-10-24 18:42:00,
2013-10-24 14:53:00,47.0,36.0,30.19,WSW,243,4.0,-999.0,65,-99.99,,,-99.99,,2013-10-24 18:53:00,
2013-10-24 15:02:00,47.0,36.0,30.19,WSW,243,4.0,-999.0,65,-99.99,,,-99.99,,2013-10-24 19:02:00,
2013-10-24 15:11:00,47.0,36.0,30.19,WSW,243,4.0,-999.0,65,-99.99,,,-99.99,,2013-10-24 19:11:00,
2013-10-24 15:22:00,46.0,35.0,30.19,WNW,302,5.0,-999.0,65,-99.99,,,-99.99,,2013-10-24 19:22:00,
2013-10-24 15:43:00,46.0,36.0,30.20,NW,310,5.0,-999.0,68,-99.99,,,-99.99,,2013-10-24 19:43:00,
2013-10-24 15:53:00,46.0,37.0,30.20,NNW,329,3.0,-999.0,71,-99.99,,,-99.99,,2013-10-24 19:53:00,
2013-10-24 16:02:00,46.0,37.0,30.20,NNW,329,3.0,-999.0,71,-99.99,,,-99.99,,2013-10-24 20:02:00,
2013-10-24 16:11:00,46.0,37.0,30.20,NNW,329,3.0,-999.0,71,-99.99,,,-99.99,,2013-10-24 20:11:00,
2013-10-24 16:23:00,45.0,38.0,30.20,NNW,330,1.0,-999.0,75,-99.99,,,-99.99,,2013-10-24 20:23:00,
2013-10-24 16:43:00,46.0,39.0,30.20,NNW,330,1.0,-999.0,76,-99.99,,,-99.99,,2013-10-24 20:43:00,
2013-10-24 16:53:00,46.0,36.0,30.20,NNW,327,2.0,-999.0,69,-99.99,,,-99.99,,2013-10-24 20:53:00,
2013-10-24 17:02:00,46.0,36.0,30.20,NNW,327,2.0,-999.0,69,-99.99,,,-99.99,,2013-10-24 21:02:00,
2013-10-24 17:12:00,46.0,36.0,30.20,NNW,327,2.0,-999.0,69,-99.99,,,-99.99,,2013-10-24 21:12:00,
2013-10-24 17:22:00,47.0,37.0,30.20,West,279,2.0,-999.0,67,-99.99,,,-99.99,,2013-10-24 21:22:00,
2013-10-24 17:43:00,47.0,37.0,30.20,West,279,1.0,-999.0,67,-99.99,,,-99.99,,2013-10-24 21:43:00,
2013-10-24 17:54:00,47.0,37.0,30.20,West,279,3.0,-999.0,68,-99.99,,,-99.99,,2013-10-24 21:54:00,
2013-10-24 18:04:00,47.0,37.0,30.20,West,279,3.0,-999.0,68,-99.99,,,-99.99,,2013-10-24 22:04:00,
2013-10-24 18:14:00,47.0,37.0,30.20,West,279,3.0,-999.0,68,-99.99,,,-99.99,,2013-10-24 22:14:00,
2013-10-24 18:24:00,44.0,36.0,30.23,WNW,288,10.0,-999.0,74,-99.99,,,-99.99,,2013-10-24 22:24:00,
2013-10-24 18:43:00,41.0,37.0,30.24,NW,311,8.0,-999.0,84,-99.99,,,-99.99,,2013-10-24 22:43:00,
2013-10-24 18:54:00,41.0,37.0,30.25,NW,323,6.0,-999.0,86,-99.99,,,-99.99,,2013-10-24 22:54:00,
2013-10-24 19:03:00,41.0,37.0,30.25,NW,323,6.0,-999.0,86,-99.99,,,-99.99,,2013-10-24 23:03:00,
2013-10-24 19:13:00,41.0,37.0,30.25,NW,323,6.0,-999.0,86,-99.99,,,-99.99,,2013-10-24 23:13:00,
2013-10-24 19:22:00,39.0,33.0,30.28,West,276,10.0,-999.0,78,-99.99,,,-99.99,,2013-10-24 23:22:00,
2013-10-24 19:43:00,38.0,32.0,30.29,NW,304,8.0,-999.0,78,-99.99,,,-99.99,,2013-10-24 23:43:00,
2013-10-24 19:53:00,38.0,32.0,30.29,WNW,296,5.0,-999.0,78,-99.99,,,-99.99,,2013-10-24 23:53:00,
2013-10-24 20:02:00,38.0,32.0,30.29,WNW,296,5.0,-999.0,78,-99.99,,,-99.99,,2013-10-25 00:02:00,
2013-10-24 20:12:00,38.0,32.0,30.29,WNW,296,5.0,-999.0,78,-99.99,,,-99.99,,2013-10-25 00:12:00,
2013-10-24 20:22:00,38.0,31.0,30.30,WNW,294,5.0,-999.0,76,-99.99,,,-99.99,,2013-10-25 00:22:00,
2013-10-24 20:42:00,38.0,31.0,30.31,WNW,300,4.0,-999.0,77,-99.99,,,-99.99,,2013-10-25 00:42:00,
2013-10-24 20:52:00,38.0,32.0,30.31,NW,310,3.0,-999.0,78,-99.99,,,-99.99,,2013-10-25 00:52:00,
2013-10-24 21:02:00,38.0,32.0,30.31,NW,310,3.0,-999.0,78,-99.99,,,-99.99,,2013-10-25 01:02:00,
2013-10-24 21:12:00,38.0,32.0,30.31,NW,310,3.0,-999.0,78,-99.99,,,-99.99,,2013-10-25 01:12:00,
2013-10-24 21:22:00,37.0,31.0,30.32,WNW,286,3.0,-999.0,79,-99.99,,,-99.99,,2013-10-25 01:22:00,
2013-10-24 21:43:00,37.0,31.0,30.32,WNW,286,2.0,-999.0,79,-99.99,,,-99.99,,2013-10-25 01:43:00,
2013-10-24 21:53:00,37.0,31.0,30.32,WNW,286,1.0,-999.0,80,-99.99,,,-99.99,,2013-10-25 01:53:00,
2013-10-24 22:02:00,37.0,31.0,30.32,WNW,286,1.0,-999.0,80,-99.99,,,-99.99,,2013-10-25 02:02:00,
2013-10-24 22:12:00,37.0,31.0,30.32,WNW,286,1.0,-999.0,80,-99.99,,,-99.99,,2013-10-25 02:12:00,
2013-10-24 22:23:00,37.0,31.0,30.33,WNW,290,3.0,-999.0,80,-99.99,,,-99.99,,2013-10-25 02:23:00,
2013-10-24 22:43:00,37.0,31.0,30.34,WNW,291,3.0,-999.0,79,-99.99,,,-99.99,,2013-10-25 02:43:00,
2013-10-24 22:52:00,37.0,31.0,30.34,WNW,298,5.0,-999.0,79,-99.99,,,-99.99,,2013-10-25 02:52:00,
2013-10-24 23:03:00,37.0,31.0,30.34,WNW,298,5.0,-999.0,79,-99.99,,,-99.99,,2013-10-25 03:03:00,
2013-10-24 23:12:00,37.0,31.0,30.34,WNW,298,5.0,-999.0,79,-99.99,,,-99.99,,2013-10-25 03:12:00,
2013-10-24 23:23:00,37.0,31.0,30.35,WNW,292,4.0,-999.0,78,-99.99,,,-99.99,,2013-10-25 03:23:00,
2013-10-24 23:44:00,37.0,31.0,30.35,WNW,296,3.0,-999.0,78,-99.99,,,-99.99,,2013-10-25 03:44:00,
2013-10-24 23:54:00,37.0,31.0,30.35,WNW,289,4.0,-999.0,78,-99.99,,,-99.99,,2013-10-25 03:54:00,